Temp
0 1 1 2 3 4 4 4 4 3 3 3 3 2 2 2 3 3 3 3 2 3 3 2 2 2 1 2 -0 1 1 0 -1 -1 -1 -1 -2 -1 -1 0 1 -0 -2 -0 1 1 2 2 2 2 1 1 1 1
-0 0 0 1 2 1 2 1 1 1 1 -1 1 0 0 1 1 1 1 1 1 1 2 2 1 1 1 1 2 1 0 -0 -0 -3 -5 -3 -0 -3 -3 -3 -1 -1 -1 -1 -1 0 2 2 0 1 0 0 -0 -1
-1 -1 -0 0 0 0 0 0 0 -0 -0 -0 -0 0 -1 -1 -0 0 0 0 -0 -0 1 0 0 1 1 1 0 0 -1 -0 -0 -0 -2 -4 -5 -4 -5 -5 -2 -1 -0 -2 -1 0 1 1 1 0 0 -0 -1 -1
-2 -1 -1 -1 -0 -0 -0 -0 0 -0 -1 -1 -1 -1 -2 -2 -1 -1 -1 -1 -1 -1 -2 -1 -1 -0 -0 -0 0 -0 -0 -1 -1 -1 -1 -8 -5 -2 -5 -3 -4 -2 -1 -3 -3 -1 -0 -0 -1 -1 -1 -1 -1 -1
-2 -2 -2 -2 -2 -2 -1 -0 -1 -1 -1 -1 -1 -2 -2 -2 -2 -2 -2 -2 -2 -1 -2 -1 -1 -1 -1 -1 -1 -1 -1 -1 -2 -3 -5 -7 -3 -4 -4 -6 -6 -1 -3 -4 -2 -1 -2 -2 -1 -1 -2 -2 -3 -3
-3 -2 -2 -2 -2 -1 -1 -1 -1 -1 -1 -1 -1 -2 -2 -2 -3 -2 -3 -3 -3 -3 -2 -4 -2 -1 -1 -1 -1 -1 -1 -2 -2 -2 -3 -2 -2 -3 -7 -6 -3 -1 -0 -0 -1 -1 -2 -2 -1 -1 -1 -1 -2 -2
-4 -4 -3 -2 -2 -2 -1 -1 -1 -1 -1 -2 -2 -2 -2 -3 -3 -3 -3 -3 -3 -3 -3 -4 -4 -2 -2 -1 -2 -2 -2 -2 -2 -2 -4 -3 -3 -2 -8 -7 -0 -1 -1 -1 -1 -2 -2 -1 -1 -1 -1 -1 -2 -2
-5 -4 -4 -3 -2 -2 -2 -1 -1 -1 -2 -2 -2 -3 -3 -3 -3 -3 -3 -3 -3 -3 -3 -9 -7 -3 -2 -2 -2 -2 -2 -3 -3 -3 -4 -5 -4 -4 -7 -3 -0 -0 -1 -1 -0 -1 -1 -2 -2 -1 -1 -1 -2 -2
-5 -4 -4 -4 -3 -2 -2 -2 -2 -2 -2 -3 -3 -3 -3 -4 -3 -3 -3 -3 -4 -4 -4 -6 -9 -8 -3 -3 -3 -3 -3 -8 -5 -5 -6 -4 -7 -7 -4 -2 -1 -0 -1 -1 -1 -1 -1 -1 -2 -2 -2 -2 -2 -2
-4 -4 -4 -4 -4 -3 -3 -2 -3 -2 -2 -3 -4 -4 -4 -4 -4 -4 -5 -5 -5 -5 -4 -5 -5 -8 -3 -4 -4 -4 -5 -8 -10 -5 -5 -8 -6 -2 -0 0 -0 -0 -0 -1 -2 -3 -1 -2 -2 -3 -3 -3 -3 -3
-4 -4 -5 -4 -4 -4 -3 -3 -3 -3 -3 -4 -4 -4 -4 -5 -5 -5 -5 -5 -6 -6 -5 -5 -5 -7 -4 -6 -7 -5 -12 -12 -11 -7 -8 -11 -9 -4 0 0 0 0 -1 -1 -1 -2 -2 -3 -3 -3 -3 -3 -3 -3
-4 -4 -4 -4 -4 -4 -4 -3 -3 -3 -4 -3 -3 -5 -5 -5 -6 -6 -7 -7 -8 -8 -5 -6 -5 -5 -5 -4 -4 -7 -13 -14 -10 -8 -8 -8 -8 0 -0 -0 -0 -0 -1 -1 -2 -2 -2 -3 -3 -4 -4 -4 -4 -4
-4 -4 -4 -4 -4 -4 -4 -4 -4 -4 -4 -5 -4 -5 -5 -7 -7 -6 -11 -8 -10 -6 -6 -6 -6 -4 -5 -5 -8 -13 -9 -8 -9 -15 -9 -9 -2 -1 -1 -1 -1 -2 -2 -3 -3 -2 -3 -3 -3 -4 -4 -4 -4 -4
-5 -5 -4 -4 -4 -4 -4 -4 -4 -4 -5 -5 -5 -9 -10 -11 -11 -9 -10 -9 -5 -5 -5 -4 -5 -4 -5 -7 -10 -10 -9 -11 -13 -15 -9 -9 -0 -1 -1 -2 -2 -3 -3 -3 -3 -3 -3 -3 -4 -4 -4 -4 -5 -5
-5 -5 -4 -4 -4 -5 -4 -4 -4 -4 -5 -6 -6 -9 -12 -7 -6 -6 -5 -4 -4 -4 -4 -4 -6 -5 -10 -11 -12 -10 -11 -11 -9 -8 -7 -1 -1 -1 -2 -3 -3 -3 -4 -4 -4 -4 -4 -4 -5 -5 -5 -5 -6 -6
-5 -5 -5 -4 -5 -5 -5 -4 -4 -5 -5 -5 -7 -10 -10 -9 -9 -7 -6 -4 -4 -4 -4 -4 -12 -12 -10 -12 -12 -11 -12 -11 -8 -9 -1 -1 -2 -3 -3 -3 -4 -4 -4 -5 -4 -4 -4 -5 -6 -7 -7 -7 -6 -6
-5 -5 -5 -5 -5 -4 -4 -5 -5 -5 -5 -6 -7 -6 -6 -6 -5 -4 -4 -3 -4 -3 -9 -8 -11 -9 -10 -14 -12 -10 -11 -5 -2 -1 -2 -2 -3 -3 -4 -4 -4 -4 -4 -4 -5 -5 -6 -6 -6 -7 -7 -7 -7 -7
-5 -5 -5 -5 -5 -5 -5 -5 -4 -5 -6 -6 -8 -8 -6 -4 -3 -3 -3 -3 -4 -4 -4 -9 -6 -11 -11 -12 -10 -8 -4 -2 -2 -2 -3 -3 -4 -4 -4 -4 -4 -4 -4 -5 -5 -6 -7 -7 -7 -7 -7 -7 -7 -7
-5 -5 -5 -5 -5 -5 -5 -4 -4 -5 -6 -7 -6 -4 -6 -3 -2 -1 -1 -2 -3 -3 -3 -5 -14 -12 -8 -6 -4 -3 -3 -3 -3 -3 -4 -4 -4 -4 -4 -4 -4 -5 -6 -6 -6 -6 -7 -7 -7 -7 -7 -7 -7 -7
-5 -5 -5 -5 -5 -5 -5 -5 -5 -5 -8 -6 -6 -6 -5 -4 -2 -2 -2 -3 -3 -4 -5 -12 -9 -3 -4 -2 -2 -2 -3 -3 -4 -5 -5 -4 -4 -4 -5 -5 -6 -6 -6 -6 -7 -7 -7 -7 -7 -8 -8 -8 -8 -7
-5 -5 -5 -5 -5 -5 -5 -6 -6 -7 -7 -7 -7 -5 -5 -4 -4 -4 -4 -4 -5 -5 -7 -3 -3 -2 -3 -3 -3 -3 -3 -3 -4 -4 -5 -5 -4 -5 -6 -6 -6 -7 -7 -7 -7 -7 -7 -8 -9 -9 -9 -9 -9 -8
-5 -5 -5 -5 -5 -5 -6 -6 -6 -7 -7 -8 -7 -6 -6 -6 -5 -5 -5 -6 -5 -4 -4 -3 -2 -2 -3 -3 -2 -2 -3 -3 -3 -3 -4 -4 -5 -7 -7 -7 -7 -7 -8 -8 -8 -9 -9 -9 -9 -10 -10 -9 -9 -9
-5 -5 -5 -5 -5 -6 -7 -6 -6 -7 -8 -8 -8 -9 -10 -8 -7 -7 -6 -5 -3 -3 -2 -2 -2 -2 -3 -3 -3 -3 -3 -3 -4 -4 -5 -6 -7 -7 -8 -8 -8 -8 -9 -9 -10 -10 -10 -10 -10 -10 -10 -10 -10 -9
-6 -5 -5 -5 -6 -9 -7 -7 -7 -8 -9 -12 -13 -11 -13 -10 -9 -10 -14 -7 -3 -2 -2 -2 -2 -3 -3 -3 -3 -3 -4 -4 -5 -5 -6 -7 -8 -7 -8 -9 -9 -9 -10 -10 -11 -11 -11 -11 -11 -10 -10 -10 -10 -9
-6 -6 -6 -9 -8 -8 -12 -12 -10 -12 -13 -16 -14 -14 -15 -12 -17 -14 -12 -7 -2 -2 -2 -2 -3 -3 -3 -3 -4 -4 -4 -5 -7 -8 -6 -8 -8 -9 -9 -9 -9 -10 -11 -11 -11 -11 -11 -11 -11 -11 -10 -10 -9 -9
-8 -7 -8 -8 -10 -10 -12 -14 -12 -13 -15 -15 -15 -15 -14 -18 -15 -13 -12 -4 -2 -2 -2 -3 -3 -3 -3 -4 -4 -4 -5 -6 -7 -7 -7 -8 -8 -9 -10 -11 -11 -10 -11 -11 -11 -11 -11 -11 -11 -11 -10 -10 -9 -9
-11 -10 -8 -8 -8 -9 -11 -10 -10 -14 -15 -13 -16 -18 -18 -13 -15 -10 -3 -2 -2 -2 -3 -3 -4 -4 -4 -4 -5 -5 -6 -7 -7 -8 -7 -7 -8 -9 -10 -11 -12 -11 -11 -11 -11 -11 -11 -11 -11 -11 -10 -9 -9 -8
-7 -8 -11 -8 -8 -8 -14 -14 -13 -9 -13 -11 -12 -14 -13 -12 -10 -3 -2 -2 -3 -3 -3 -4 -4 -5 -5 -5 -6 -6 -6 -6 -7 -7 -8 -8 -8 -10 -10 -11 -11 -11 -11 -11 -11 -11 -11 -11 -10 -10 -9 -9 -8 -8
-7 -7 -7 -11 -9 -9 -8 -10 -9 -6 -6 -8 -12 -13 -10 -5 -3 -2 -3 -3 -3 -4 -4 -4 -5 -5 -6 -6 -6 -6 -7 -8 -8 -9 -9 -9 -9 -9 -11 -11 -11 -11 -11 -10 -9 -10 -9 -9 -8 -7 -7 -7 -7 -7
-8 -8 -8 -11 -13 -12 -6 -5 -5 -5 -6 -6 -5 -5 -4 -3 -3 -4 -4 -4 -4 -4 -5 -6 -6 -6 -6 -6 -6 -6 -8 -9 -10 -11 -12 -11 -11 -11 -11 -11 -11 -11 -11 -10 -9 -8 -8 -7 -7 -7 -6 -6 -6 -6
-8 -8 -8 -9 -11 -6 -5 -5 -6 -6 -6 -6 -5 -6 -5 -5 -4 -4 -4 -4 -5 -6 -6 -7 -7 -7 -6 -6 -6 -7 -8 -9 -10 -10 -11 -11 -11 -11 -11 -12 -12 -11 -10 -9 -8 -8 -7 -6 -6 -6 -6 -6 -6 -6
-9 -8 -9 -13 -8 -6 -6 -6 -6 -6 -6 -6 -5 -6 -6 -6 -6 -6 -6 -6 -6 -7 -7 -7 -7 -6 -7 -7 -8 -8 -9 -10 -10 -10 -10 -10 -10 -12 -12 -12 -10 -10 -9 -8 -8 -7 -7 -6 -6 -6 -6 -6 -5 -6
-10 -10 -9 -8 -8 -7 -8 -7 -8 -8 -9 -8 -8 -8 -8 -7 -7 -7 -7 -7 -7 -7 -7 -7 -7 -7 -7 -8 -8 -9 -9 -10 -10 -10 -10 -10 -10 -12 -12 -10 -9 -9 -9 -8 -7 -7 -6 -6 -6 -6 -5 -5 -5 -5
Height
1512 1512 1510 1508 1505 1505 1508 1509 1511 1511 1516 1517 1519 1521 1523 1522 1523 1523 1522 1523 1525 1525 1526 1526 1525 1525 1525 1525 1530 1531 1532 1529 1531 1536 1537 1536 1541 1534 1534 1528 1524 1531 1538 1533 1529 1525 1515 1502 1503 1511 1511 1504 1502 1498
1508 1509 1508 1506 1506 1505 1505 1506 1506 1510 1510 1514 1515 1515 1517 1518 1519 1521 1521 1522 1522 1524 1523 1522 1524 1524 1524 1526 1528 1528 1530 1529 1529 1534 1538 1537 1534 1538 1538 1540 1526 1532 1525 1526 1524 1512 1503 1502 1507 1506 1505 1500 1495 1492
1506 1507 1506 1504 1505 1505 1506 1506 1508 1508 1510 1512 1512 1513 1513 1516 1517 1517 1517 1518 1520 1521 1520 1519 1519 1520 1521 1521 1522 1526 1526 1528 1529 1528 1533 1538 1543 1538 1542 1537 1525 1521 1519 1520 1517 1506 1505 1503 1503 1502 1498 1493 1488 1483
1504 1504 1504 1502 1502 1504 1504 1505 1506 1508 1511 1511 1511 1511 1512 1515 1514 1515 1517 1517 1518 1519 1518 1519 1518 1517 1518 1521 1520 1520 1521 1525 1527 1528 1529 1534 1538 1533 1533 1525 1526 1521 1516 1511 1509 1506 1501 1502 1500 1496 1491 1487 1481 1475
1500 1501 1501 1501 1501 1501 1502 1503 1504 1505 1508 1510 1511 1511 1512 1512 1512 1513 1514 1515 1516 1519 1517 1515 1515 1516 1515 1516 1518 1519 1520 1523 1526 1529 1529 1532 1527 1527 1525 1525 1520 1511 1510 1513 1501 1500 1498 1495 1492 1491 1487 1479 1475 1471
1493 1496 1498 1498 1498 1499 1498 1500 1502 1504 1504 1508 1509 1511 1511 1513 1512 1512 1513 1513 1514 1515 1516 1515 1512 1512 1514 1513 1515 1517 1520 1520 1522 1525 1526 1526 1522 1523 1528 1523 1502 1502 1503 1501 1496 1493 1492 1489 1487 1484 1479 1475 1470 1466
1489 1492 1491 1494 1495 1496 1496 1496 1499 1501 1501 1503 1507 1509 1509 1511 1515 1514 1514 1513 1512 1516 1516 1514 1511 1512 1511 1511 1513 1516 1517 1520 1522 1521 1521 1520 1518 1521 1520 1516 1495 1498 1495 1493 1491 1488 1485 1482 1479 1477 1474 1470 1466 1462
1486 1488 1488 1488 1490 1492 1492 1494 1494 1496 1497 1500 1502 1505 1508 1510 1512 1513 1512 1514 1515 1516 1515 1515 1511 1511 1511 1509 1513 1516 1516 1518 1517 1517 1517 1516 1515 1513 1515 1496 1493 1492 1489 1487 1484 1481 1479 1476 1473 1469 1466 1463 1459 1454
1483 1483 1484 1484 1485 1487 1487 1489 1492 1494 1496 1497 1500 1501 1506 1508 1511 1509 1511 1515 1513 1517 1515 1513 1515 1515 1509 1509 1510 1513 1514 1520 1516 1514 1513 1513 1511 1511 1494 1490 1488 1484 1483 1480 1477 1474 1472 1470 1467 1463 1459 1455 1451 1444
1478 1479 1480 1480 1480 1481 1484 1486 1489 1493 1493 1495 1499 1499 1504 1508 1507 1510 1512 1513 1514 1513 1510 1512 1508 1508 1508 1509 1509 1512 1513 1517 1521 1510 1510 1509 1501 1489 1487 1485 1481 1479 1476 1475 1471 1467 1466 1463 1459 1453 1449 1445 1441 1435
1473 1473 1475 1476 1477 1478 1479 1482 1484 1486 1487 1490 1495 1498 1502 1507 1508 1510 1510 1512 1511 1509 1505 1502 1504 1504 1506 1509 1510 1511 1516 1518 1527 1514 1514 1513 1501 1484 1482 1479 1477 1473 1471 1468 1466 1462 1459 1454 1448 1443 1438 1434 1429 1424
1467 1468 1469 1472 1472 1475 1476 1478 1480 1475 1478 1483 1488 1495 1503 1506 1509 1509 1511 1510 1507 1504 1498 1498 1500 1501 1503 1506 1507 1512 1518 1523 1526 1513 1512 1504 1484 1477 1477 1475 1471 1469 1465 1462 1459 1454 1449 1444 1439 1433 1428 1422 1417 1413
1460 1462 1464 1466 1467 1470 1472 1474 1476 1478 1476 1481 1487 1491 1496 1503 1506 1502 1514 1505 1502 1491 1492 1494 1497 1498 1502 1504 1507 1510 1516 1517 1513 1523 1506 1488 1472 1472 1471 1468 1465 1463 1459 1455 1449 1444 1439 1433 1428 1423 1417 1412 1407 1402
1454 1456 1458 1460 1463 1465 1468 1470 1472 1473 1475 1478 1482 1491 1492 1497 1491 1486 1486 1486 1486 1486 1488 1491 1494 1497 1500 1503 1505 1514 1510 1513 1523 1528 1495 1472 1467 1466 1463 1461 1458 1452 1448 1444 1439 1433 1428 1423 1417 1411 1407 1402 1397 1392
1447 1450 1452 1454 1457 1459 1462 1466 1467 1468 1470 1473 1477 1481 1480 1473 1472 1473 1478 1480 1481 1484 1487 1492 1494 1497 1500 1504 1506 1508 1515 1515 1501 1489 1470 1462 1462 1460 1456 1453 1448 1442 1438 1433 1428 1423 1417 1412 1406 1400 1396 1391 1387 1382
1441 1444 1444 1448 1451 1454 1457 1462 1460 1463 1461 1465 1468 1469 1468 1471 1468 1471 1472 1476 1479 1483 1487 1490 1496 1503 1503 1504 1510 1509 1513 1502 1475 1466 1459 1458 1455 1452 1447 1443 1438 1433 1429 1424 1419 1413 1407 1402 1396 1390 1385 1380 1376 1372
1435 1434 1438 1442 1445 1448 1452 1455 1456 1456 1457 1457 1457 1457 1461 1461 1458 1461 1466 1472 1477 1482 1485 1488 1499 1497 1498 1507 1503 1491 1486 1462 1456 1455 1454 1452 1448 1443 1439 1434 1429 1425 1420 1414 1409 1403 1398 1393 1387 1381 1374 1370 1366 1361
1426 1430 1433 1437 1441 1443 1446 1448 1447 1447 1448 1447 1448 1448 1453 1458 1458 1459 1463 1468 1474 1478 1480 1484 1484 1493 1494 1496 1480 1461 1455 1453 1452 1450 1447 1443 1439 1435 1431 1425 1420 1415 1410 1404 1399 1394 1389 1383 1377 1371 1366 1360 1356 1352
1421 1424 1429 1432 1435 1439 1441 1442 1441 1441 1439 1438 1441 1444 1449 1453 1456 1456 1459 1464 1469 1472 1475 1477 1481 1481 1470 1457 1454 1451 1451 1450 1446 1442 1439 1435 1431 1426 1421 1416 1410 1405 1400 1395 1390 1385 1380 1375 1369 1363 1358 1354 1349 1344
1412 1418 1423 1428 1429 1432 1434 1436 1434 1435 1435 1434 1437 1442 1444 1449 1454 1456 1458 1461 1465 1468 1470 1469 1462 1452 1448 1446 1448 1447 1445 1444 1441 1435 1430 1426 1423 1418 1412 1407 1401 1396 1390 1385 1381 1377 1370 1365 1362 1358 1353 1348 1343 1338
1417 1421 1424 1426 1427 1427 1429 1430 1432 1433 1434 1435 1437 1439 1441 1444 1449 1452 1455 1458 1462 1459 1455 1450 1447 1442 1443 1442 1443 1442 1439 1438 1434 1430 1424 1417 1413 1409 1403 1399 1394 1389 1384 1378 1372 1367 1364 1359 1354 1350 1346 1342 1338 1334
1421 1423 1425 1425 1425 1426 1428 1430 1430 1431 1433 1433 1436 1436 1440 1441 1446 1449 1449 1453 1450 1445 1444 1441 1436 1438 1437 1435 1435 1435 1433 1431 1427 1423 1419 1413 1404 1400 1395 1392 1387 1380 1375 1371 1366 1361 1356 1352 1348 1344 1341 1336 1333 1328
1422 1424 1424 1425 1426 1427 1430 1430 1430 1431 1433 1436 1436 1437 1439 1439 1441 1445 1446 1442 1436 1433 1434 1433 1432 1432 1432 1430 1429 1428 1426 1424 1419 1414 1409 1404 1399 1395 1389 1384 1380 1374 1368 1363 1359 1355 1350 1346 1342 1339 1335 1331 1327 1323
1423 1424 1425 1424 1425 1428 1429 1429 1431 1432 1433 1436 1438 1439 1439 1439 1441 1441 1441 1431 1425 1427 1427 1427 1428 1427 1427 1425 1424 1421 1419 1416 1409 1404 1401 1397 1391 1385 1382 1376 1372 1367 1362 1356 1352 1348 1344 1340 1336 1333 1329 1326 1323 1320
1425 1426 1426 1425 1426 1427 1429 1430 1430 1432 1437 1437 1438 1438 1438 1439 1443 1442 1436 1423 1422 1422 1422 1423 1424 1424 1422 1420 1417 1414 1411 1406 1401 1396 1393 1389 1383 1378 1373 1369 1365 1361 1356 1351 1347 1343 1338 1335 1331 1328 1325 1322 1319 1317
1422 1422 1424 1422 1424 1425 1427 1432 1430 1432 1433 1434 1435 1436 1436 1438 1443 1437 1425 1417 1417 1418 1420 1421 1421 1419 1416 1415 1410 1406 1402 1399 1395 1390 1386 1383 1378 1374 1368 1363 1358 1354 1352 1347 1342 1337 1333 1329 1326 1323 1320 1318 1316 1314
1422 1420 1419 1420 1421 1422 1425 1426 1426 1427 1431 1431 1433 1436 1438 1442 1441 1422 1416 1415 1416 1418 1419 1418 1416 1413 1410 1406 1404 1400 1397 1394 1389 1384 1380 1377 1373 1370 1366 1361 1355 1350 1345 1341 1337 1333 1328 1324 1320 1318 1315 1313 1312 1311
1414 1414 1417 1418 1419 1421 1423 1424 1425 1424 1424 1424 1428 1434 1434 1429 1421 1413 1414 1415 1416 1415 1415 1413 1410 1407 1403 1401 1398 1395 1391 1386 1382 1379 1375 1372 1369 1365 1361 1356 1352 1346 1342 1337 1332 1328 1324 1320 1316 1313 1311 1309 1308 1308
1412 1412 1414 1417 1418 1418 1417 1417 1416 1415 1415 1416 1420 1421 1416 1412 1411 1412 1413 1413 1412 1411 1408 1405 1403 1401 1399 1398 1395 1392 1386 1380 1376 1372 1368 1364 1361 1359 1355 1350 1345 1341 1336 1331 1327 1325 1321 1318 1314 1311 1309 1308 1307 1308
1409 1411 1412 1414 1415 1413 1409 1410 1410 1410 1411 1413 1413 1412 1410 1410 1410 1410 1409 1408 1406 1403 1401 1400 1399 1398 1396 1393 1389 1388 1383 1379 1376 1373 1367 1362 1358 1354 1350 1345 1341 1336 1332 1328 1325 1321 1319 1317 1315 1313 1312 1311 1311 1311
1409 1410 1411 1411 1410 1408 1408 1408 1409 1410 1410 1410 1409 1409 1407 1406 1405 1404 1402 1401 1400 1399 1399 1399 1398 1396 1393 1390 1386 1383 1381 1378 1374 1371 1367 1362 1357 1352 1347 1342 1338 1334 1330 1327 1324 1321 1319 1317 1316 1316 1315 1314 1313 1313
1407 1407 1408 1409 1406 1406 1407 1407 1406 1406 1405 1405 1403 1402 1402 1401 1401 1399 1398 1398 1398 1398 1397 1397 1396 1394 1392 1388 1385 1381 1378 1375 1371 1367 1363 1358 1353 1349 1345 1341 1336 1332 1329 1326 1323 1321 1319 1318 1318 1318 1317 1316 1315 1314
1407 1407 1407 1407 1405 1404 1405 1405 1404 1403 1402 1401 1400 1399 1398 1399 1398 1398 1397 1397 1397 1397 1397 1396 1394 1392 1389 1386 1383 1381 1378 1374 1370 1366 1362 1357 1352 1347 1343 1337 1333 1330 1327 1325 1323 1321 1320 1319 1319 1319 1318 1318 1317 1317
Wind_Speed
14 14 14 14 16 16 20 30 31 27 26 20 20 16 13 8 8 6 5 6 6 4 6 7 6 5 5 5 3 2 2 1 2 2 3 2 2 3 2 3 3 4 4 4 4 6 11 16 10 4 8 25 22 25
12 10 10 11 6 5 13 17 13 12 12 11 15 13 8 8 7 7 5 6 7 7 5 5 7 12 11 10 4 5 1 2 2 3 1 1 2 1 1 3 2 3 5 3 7 5 11 23 7 23 25 25 24 25
12 12 8 5 7 7 8 6 7 7 8 7 7 12 8 6 6 7 6 5 6 5 8 8 7 13 14 14 15 6 4 4 3 4 4 2 2 2 2 5 3 4 3 4 3 0 14 28 32 36 40 38 41 40
13 12 14 9 5 6 5 3 3 6 7 6 5 3 3 5 5 5 5 5 4 2 2 2 4 4 4 5 7 12 5 9 7 3 3 3 2 7 3 5 4 6 3 4 7 13 20 24 28 36 38 37 39 39
16 14 13 12 12 10 10 11 10 9 7 5 3 2 2 4 3 2 3 4 5 5 2 2 6 6 3 6 9 11 13 9 3 3 2 3 5 2 3 2 4 10 6 4 10 18 15 25 32 29 30 32 29 30
13 16 15 13 13 12 14 16 13 14 12 10 7 5 3 3 1 1 1 2 6 6 2 1 3 6 6 5 4 12 12 7 6 5 4 5 5 5 2 3 12 15 16 20 21 32 31 30 26 20 22 22 18 21
12 13 15 15 14 13 13 14 16 18 16 12 9 7 6 5 3 1 1 1 5 3 3 4 3 3 6 3 6 8 9 6 6 4 5 4 5 9 2 4 14 26 34 31 28 26 23 28 25 26 28 28 29 31
13 13 14 15 16 14 12 13 13 21 19 15 11 10 9 6 2 2 4 4 4 2 3 1 3 1 4 4 3 4 4 6 6 3 3 4 3 4 3 19 26 25 25 27 29 25 21 21 24 26 31 29 31 33
16 15 15 14 14 16 14 13 12 14 14 13 13 14 11 5 4 3 4 7 9 5 3 2 2 3 4 4 4 4 3 0 2 3 4 5 1 4 11 24 29 34 31 33 31 31 22 19 27 29 30 34 37 39
17 16 15 14 13 14 16 14 14 15 11 16 15 7 5 5 6 4 3 4 5 6 5 4 4 2 4 3 2 3 1 0 1 3 2 2 4 22 25 23 25 24 29 26 26 26 24 29 35 37 36 36 37 38
20 17 16 15 14 13 15 15 18 20 25 22 8 6 11 11 6 4 3 2 3 3 6 7 13 2 4 3 3 1 2 1 1 4 2 2 4 9 9 15 18 21 22 19 21 26 29 37 41 42 42 40 40 39
21 20 18 16 14 14 14 16 17 25 27 23 15 18 12 5 2 3 2 2 3 5 5 6 7 11 5 5 3 2 3 3 5 2 1 4 5 7 16 26 26 21 24 27 33 40 42 42 42 41 41 41 41 38
19 19 20 18 16 15 15 14 15 16 20 22 9 9 7 4 3 6 6 4 3 6 9 9 6 7 5 5 5 3 2 5 2 2 4 5 7 9 20 27 30 33 33 35 43 44 42 41 40 40 41 41 40 40
21 20 20 20 18 18 16 14 14 18 26 6 7 4 5 3 5 5 5 5 8 6 15 14 8 3 4 3 3 4 3 3 2 1 6 4 17 20 30 35 36 36 37 40 42 41 41 42 43 44 44 44 42 42
21 21 20 21 21 18 16 14 17 32 11 7 6 5 6 9 7 8 17 5 7 9 18 9 6 2 3 3 1 3 3 4 6 6 4 19 22 30 36 39 38 40 41 41 42 43 45 46 46 45 44 43 42 43
22 20 23 21 21 18 16 14 22 33 11 11 6 2 2 8 5 11 16 13 14 20 12 5 4 4 3 3 3 6 5 7 5 4 20 23 33 38 38 40 41 41 41 42 43 45 46 45 43 43 43 42 42 41
19 25 22 20 19 19 18 18 19 10 8 9 9 17 16 12 21 18 15 21 21 19 3 5 4 8 3 2 3 4 6 7 21 21 30 38 36 39 41 42 41 42 43 44 45 44 41 42 42 42 42 43 42 41
26 23 21 17 13 12 17 23 12 10 6 10 8 13 26 6 18 17 17 24 20 13 11 5 6 3 5 6 5 6 22 28 30 32 37 39 40 42 40 41 42 44 45 46 44 42 39 40 42 41 42 42 41 39
23 22 19 15 18 14 9 10 10 5 10 7 14 12 25 15 17 19 19 23 22 22 8 7 3 4 5 13 18 28 27 30 31 34 34 40 39 39 40 43 45 44 41 40 40 38 40 40 41 40 37 34 34 34
11 17 21 18 16 10 9 6 7 5 7 9 13 20 15 17 19 15 18 24 26 11 6 4 6 22 22 32 29 29 32 34 33 33 34 37 39 40 41 41 41 41 41 37 34 35 38 35 26 33 33 29 29 29
19 14 14 11 5 4 3 2 2 3 7 6 14 19 7 17 14 20 20 21 16 8 8 23 33 44 37 37 36 37 38 35 34 32 35 38 44 40 40 38 35 35 33 33 36 32 27 34 32 30 25 25 25 24
13 9 9 3 2 2 3 4 3 4 1 5 13 7 7 7 8 12 12 13 10 28 27 32 41 39 39 39 35 32 33 31 27 31 37 41 41 37 35 34 32 34 36 32 31 34 32 30 28 26 25 27 27 26
9 6 3 2 2 2 3 5 1 3 3 4 5 3 1 4 8 13 7 8 15 27 30 36 39 39 40 38 36 29 23 23 32 38 38 36 36 36 34 35 32 32 33 34 29 27 28 27 27 26 27 25 23 22
7 5 3 2 1 2 4 3 3 3 4 3 2 1 1 4 9 3 3 6 13 21 23 23 21 22 22 18 16 21 27 32 36 36 34 33 36 37 33 34 32 30 28 28 25 26 28 29 28 27 25 23 21 20
5 4 2 1 3 3 2 1 2 3 1 1 2 0 1 4 2 2 3 5 10 6 1 2 2 7 13 22 27 31 34 32 31 33 33 31 31 34 33 30 28 27 25 25 26 28 28 27 26 24 22 21 19 19
3 4 4 7 2 4 5 3 5 6 3 2 2 2 2 3 2 5 4 4 1 0 3 7 14 21 25 26 32 34 32 27 27 30 31 31 30 27 27 28 30 31 25 24 26 27 27 25 24 22 22 19 16 14
3 5 5 4 4 5 2 2 4 3 3 5 3 2 3 1 5 5 5 3 6 5 10 18 23 25 29 32 29 24 22 25 27 31 32 28 21 16 19 22 27 29 25 25 24 23 24 24 25 25 23 18 13 10
3 8 6 9 5 5 4 1 4 5 3 6 11 3 7 7 5 3 2 3 9 17 22 25 27 28 25 21 19 23 26 29 28 25 21 17 17 20 23 26 25 22 23 22 22 22 22 23 24 22 20 16 9 3
4 5 8 3 4 5 9 6 7 9 8 14 6 4 6 7 5 8 11 15 22 27 29 27 21 16 13 17 18 21 23 25 23 24 26 28 30 28 28 27 25 27 26 25 22 20 17 16 15 13 9 5 2 5
4 11 4 4 4 5 4 10 3 5 11 11 7 7 10 15 17 19 24 27 27 23 18 13 9 11 17 22 24 21 18 18 19 22 26 29 31 31 30 29 30 30 28 26 22 18 13 9 6 5 7 7 6 6
3 11 2 5 5 3 7 7 9 7 7 9 15 17 22 22 24 23 18 16 13 9 5 3 9 15 19 23 23 24 19 20 21 21 23 26 27 28 29 31 33 29 24 19 17 15 13 8 5 4 5 5 4 2
6 7 5 1 3 4 4 3 3 5 7 11 14 16 12 7 4 5 5 4 3 2 2 6 13 15 18 18 21 18 20 23 25 25 26 26 27 27 27 30 27 21 17 14 13 12 9 5 3 4 6 5 4 3
3 4 4 3 2 2 2 3 2 3 4 3 2 1 3 3 2 2 3 3 3 4 4 12 14 18 18 19 18 18 21 22 23 23 23 24 24 24 26 25 21 17 15 12 10 9 5 2 3 3 6 5 4 4
Wind_Direction
281 296 292 318 308 256 244 242 237 228 238 247 254 263 268 277 279 274 260 244 232 251 272 254 237 205 177 181 158 164 2 292 62 150 154 214 181 252 299 246 185 181 173 204 231 250 260 26 6 8 316 315 313 313
278 281 298 309 291 147 178 190 208 233 238 239 250 239 243 248 267 277 272 263 245 237 262 253 255 240 235 242 221 201 213 145 174 93 24 120 212 298 189 270 329 266 206 201 187 232 309 332 336 315 313 302 302 306
276 267 272 285 313 307 273 285 259 219 244 265 274 254 221 248 271 270 264 264 276 279 273 275 250 244 252 242 236 205 217 202 165 105 125 109 273 120 223 247 229 294 227 240 310 172 318 313 310 309 307 302 305 307
272 272 267 248 209 250 240 207 218 242 267 269 270 297 308 265 270 274 263 254 240 234 272 265 187 188 214 214 206 204 192 153 143 141 140 139 189 201 240 253 206 220 305 246 268 287 292 301 303 303 300 299 299 302
265 266 268 280 279 262 265 240 220 225 234 217 201 175 230 268 289 270 261 248 234 221 222 252 260 229 230 227 221 207 209 222 212 162 129 214 214 191 255 320 252 218 227 199 268 281 284 293 305 316 312 306 299 307
271 261 263 268 268 263 256 258 239 231 223 208 205 199 210 238 183 41 260 236 219 217 250 292 212 195 157 137 167 197 200 241 203 187 199 232 223 185 191 246 252 247 253 276 269 287 287 290 299 311 322 332 331 329
275 275 260 255 260 263 262 250 241 232 223 205 201 197 199 205 155 344 23 9 148 177 286 298 311 196 196 182 162 184 202 205 211 207 221 228 206 202 215 242 281 288 288 291 299 299 291 297 296 302 306 305 313 310
274 272 274 260 249 255 261 254 247 236 206 197 191 191 197 200 188 254 273 254 184 254 266 121 277 285 162 139 142 175 180 207 218 238 225 209 195 209 262 255 276 287 289 296 303 312 301 309 309 312 308 310 313 308
274 267 266 265 261 246 249 252 238 223 198 179 191 188 180 197 223 207 227 227 226 244 280 188 156 214 168 149 151 151 171 349 212 230 245 168 211 219 236 267 288 296 294 299 304 304 291 301 315 314 311 302 303 303
265 271 270 264 262 255 242 244 229 231 215 189 188 140 160 181 163 129 161 184 204 209 219 252 224 239 171 153 108 119 114 76 302 258 194 166 255 260 278 293 300 303 306 306 306 305 297 300 309 308 305 301 302 303
258 260 268 267 254 255 248 241 226 211 188 180 153 153 152 148 158 184 147 180 185 248 217 223 209 171 199 126 179 162 171 47 39 269 143 280 263 254 307 320 321 319 314 310 318 315 311 313 310 305 304 306 305 304
254 255 256 264 259 251 250 244 246 196 188 183 166 143 140 173 152 132 210 254 198 228 206 186 194 191 171 172 134 116 123 49 238 325 143 260 252 287 344 330 317 306 315 313 319 317 312 309 310 308 305 305 305 305
252 253 253 254 252 255 251 244 243 246 170 151 156 149 160 150 161 193 198 229 234 201 185 174 164 149 142 174 98 93 115 229 330 46 231 231 260 306 334 335 325 317 311 305 314 313 313 312 313 311 309 309 308 306
252 252 247 249 250 252 250 241 233 214 159 146 165 140 172 205 221 193 184 189 203 194 176 170 135 142 148 125 132 108 228 76 340 314 236 246 277 302 318 321 321 317 313 312 311 311 311 312 312 312 311 310 307 305
248 251 248 245 245 254 247 233 225 198 169 162 170 211 203 211 188 207 207 179 176 168 162 143 93 123 35 86 125 87 5 252 214 230 230 285 302 309 311 316 318 316 314 310 311 309 310 311 309 306 307 307 304 302
245 248 244 240 242 247 234 221 211 191 180 161 203 133 225 177 179 192 192 188 169 155 143 109 97 65 254 147 87 214 158 228 245 218 289 304 307 312 313 316 315 313 310 309 310 311 310 306 304 301 301 299 299 301
239 243 245 241 243 243 226 217 202 185 198 173 219 208 197 203 198 191 179 181 172 163 141 129 128 208 117 84 238 197 213 234 255 286 303 309 309 310 312 313 314 314 311 310 309 305 301 301 300 299 297 301 301 303
232 235 238 242 245 221 213 216 209 185 182 204 180 197 191 207 209 192 183 179 168 180 163 198 148 154 196 194 239 233 245 273 288 293 306 309 310 311 310 309 312 312 309 307 305 303 301 300 301 301 303 308 307 304
230 235 246 227 214 206 200 213 222 216 224 202 193 183 187 189 199 204 193 188 191 192 177 175 138 200 223 231 251 264 272 286 292 299 303 307 310 311 312 312 311 307 306 305 302 300 301 303 305 307 307 311 309 310
174 190 193 194 207 185 168 201 188 190 196 197 174 175 168 189 189 187 183 189 194 194 199 206 213 235 237 253 267 281 289 295 295 300 301 310 314 310 307 308 306 308 307 306 302 305 306 307 312 314 314 314 313 317
134 131 146 142 137 120 109 114 108 121 143 175 166 155 160 169 187 199 195 194 192 216 231 232 246 254 259 267 276 286 292 299 301 303 302 303 314 308 307 309 309 306 303 305 306 308 311 311 315 317 321 322 325 322
144 141 144 117 113 109 130 140 134 128 127 143 144 142 143 148 176 185 182 192 225 235 235 245 251 260 271 279 294 299 300 301 305 309 312 313 310 310 308 307 307 306 310 310 308 313 314 317 320 321 319 319 315 314
139 140 146 147 144 142 125 157 114 126 116 176 154 93 143 150 168 161 201 223 240 246 251 257 266 273 276 285 288 290 297 308 313 312 314 314 312 310 308 309 311 311 309 313 318 315 318 319 319 320 317 319 323 324
147 164 193 194 193 156 154 147 137 124 128 122 120 179 233 145 157 189 237 246 254 266 265 270 270 278 280 287 298 316 322 319 315 314 314 312 313 317 319 318 319 320 321 320 319 320 319 318 321 323 324 325 326 328
170 195 202 216 172 122 79 78 130 77 156 208 115 172 226 164 99 194 236 264 245 281 307 102 11 333 320 323 324 322 322 320 314 310 316 320 321 322 320 322 323 327 330 326 320 317 318 321 322 323 325 326 327 331
175 188 171 200 191 176 184 153 184 190 151 128 201 129 148 104 112 243 232 237 200 240 40 349 336 330 325 324 321 319 317 317 315 312 319 323 321 318 319 322 326 331 336 327 324 322 322 323 323 326 326 329 328 330
187 232 186 172 165 136 94 93 135 117 160 176 184 129 80 150 240 252 251 332 37 14 329 327 326 321 319 318 315 314 318 318 313 312 317 320 320 320 324 326 329 328 332 331 328 325 324 326 327 326 325 326 325 325
239 180 170 173 161 169 141 152 169 195 220 170 140 174 182 200 233 208 127 335 327 323 321 319 316 315 314 314 319 324 322 315 317 323 323 330 340 343 341 338 334 335 335 336 340 336 332 325 320 320 320 317 316 286
215 183 157 141 159 202 205 188 206 206 199 175 173 204 228 222 263 309 307 311 313 312 312 313 315 314 318 322 328 326 325 330 339 341 341 341 343 347 341 340 343 346 346 346 348 345 338 332 333 346 1 5 93 131
224 183 165 173 179 218 223 202 226 229 207 211 230 258 270 283 297 300 304 304 303 305 309 311 315 330 334 336 337 341 344 348 348 344 337 335 334 337 340 343 346 348 346 342 342 349 1 11 34 55 74 78 92 110
187 187 179 181 225 236 222 222 229 229 226 240 252 259 276 290 293 297 294 297 301 306 314 333 337 340 341 340 339 340 346 348 346 343 336 331 332 336 343 346 340 337 337 340 345 354 3 25 70 64 39 26 35 74
187 191 191 190 252 240 249 238 243 235 246 253 254 261 265 271 273 266 287 304 296 314 314 340 343 346 344 344 341 337 339 341 343 342 339 340 340 340 342 331 334 338 341 344 348 355 5 30 90 55 22 23 34 67
188 191 219 274 272 250 235 214 245 282 237 257 258 264 224 235 256 276 299 294 292 303 313 341 347 348 345 345 347 343 341 341 340 341 339 342 343 344 334 337 341 344 346 348 350 356 9 73 128 44 30 32 45 61